Location: Burgwalden
(48.2830°N, 10.7576°E)
Time: 21:52:01
(UTC+00:00)

Thor Agena Rocket - Pass Details

Date: 26 September 2023
Orbit: 757 x 806 km, 99.0° (Epoch: 09 December)

Event Time Altitude Azimuth Distance (km) Brightness Sun altitude
Rises 02:32:10 0° 13° (NNE) 3,308 7.4 -25.7°
Reaches altitude 10° 02:34:30 10° 11° (N) 2,380 6.5 -25.4°
Maximum altitude 02:39:44 70° 289° (WNW) 854 3.5 -24.6°
Enters shadow 02:40:08 67° 256° (WSW) 872 3.4 -24.6°
